Location: Devore Heights
(34.2372°N, 117.4156°W)
Time: 23:13:54
(UTC+00:00)

Transit 4A - Pass Details

Date: 19 September 2024
Orbit: 864 x 978 km, 66.8° (Epoch: 13 October)

Event Time Altitude Azimuth Distance (km) Brightness Sun altitude
Rises 19:31:08 0° 327° (NNW) 3,626 10.7 56.7°
Reaches altitude 10° 19:33:44 10° 322° (NW) 2,691 10.2 56.7°
Maximum altitude 19:39:46 50° 249° (WSW) 1,222 9.5 56.8°
Drops below altitude 10° 19:45:52 10° 176° (S) 2,715 11.1 56.8°
Sets 19:48:30 0° 171° (S) 3,660 11.5 56.8°
